TimeCDT,TemperatureF,Dew PointF,Humidity,Sea Level PressureIn,VisibilityMPH,Wind Direction,Wind SpeedMPH,Gust SpeedMPH,PrecipitationIn,Events,Conditions,WindDirDegrees,DateUTC
12:52 AM,33.1,28.0,82,30.20,10.0,West,6.9,-,N/A,,Clear,280,2013-04-25 05:52:00
1:52 AM,30.9,27.0,85,30.22,10.0,West,3.5,-,N/A,,Clear,280,2013-04-25 06:52:00
2:52 AM,30.0,27.0,88,30.21,10.0,Calm,Calm,-,N/A,,Clear,0,2013-04-25 07:52:00
3:52 AM,28.9,26.1,89,30.22,10.0,Calm,Calm,-,N/A,,Clear,0,2013-04-25 08:52:00
4:52 AM,27.0,24.1,89,30.22,10.0,Calm,Calm,-,N/A,,Clear,0,2013-04-25 09:52:00
5:52 AM,26.1,24.1,92,30.24,10.0,Calm,Calm,-,N/A,,Clear,0,2013-04-25 10:52:00
6:52 AM,25.0,23.0,92,30.26,10.0,ESE,3.5,-,N/A,,Clear,120,2013-04-25 11:52:00
7:52 AM,30.0,28.0,92,30.27,10.0,East,3.5,-,N/A,,Clear,100,2013-04-25 12:52:00
8:52 AM,35.1,30.9,85,30.27,10.0,Calm,Calm,-,N/A,,Clear,0,2013-04-25 13:52:00
9:52 AM,41.0,32.0,70,30.25,10.0,SE,6.9,-,N/A,,Clear,140,2013-04-25 14:52:00
10:52 AM,48.0,33.1,56,30.24,10.0,South,4.6,-,N/A,,Clear,170,2013-04-25 15:52:00
11:52 AM,54.0,33.1,45,30.21,10.0,SSW,8.1,17.3,N/A,,Clear,210,2013-04-25 16:52:00
12:52 PM,59.0,33.1,38,30.18,10.0,South,11.5,24.2,N/A,,Clear,190,2013-04-25 17:52:00
1:52 PM,62.1,33.1,34,30.14,10.0,South,11.5,24.2,N/A,,Clear,180,2013-04-25 18:52:00
2:52 PM,66.0,32.0,28,30.10,10.0,SSW,16.1,27.6,N/A,,Clear,200,2013-04-25 19:52:00
3:52 PM,66.9,32.0,27,30.06,10.0,South,17.3,28.8,N/A,,Clear,180,2013-04-25 20:52:00
4:52 PM,70.0,32.0,25,30.03,10.0,South,20.7,31.1,N/A,,Clear,180,2013-04-25 21:52:00
5:52 PM,70.0,32.0,25,30.00,10.0,SSW,24.2,40.3,N/A,,Clear,200,2013-04-25 22:52:00
6:52 PM,69.1,33.1,26,29.99,10.0,South,17.3,25.3,N/A,,Clear,180,2013-04-25 23:52:00
7:52 PM,64.9,33.1,31,29.96,10.0,South,12.7,-,N/A,,Clear,170,2013-04-26 00:52:00
8:52 PM,63.0,35.1,35,29.96,10.0,South,15.0,-,N/A,,Clear,170,2013-04-26 01:52:00
9:52 PM,62.1,36.0,38,29.97,10.0,South,21.9,31.1,N/A,,Clear,170,2013-04-26 02:52:00
10:52 PM,61.0,37.0,41,30.00,10.0,South,23.0,33.4,N/A,,Clear,180,2013-04-26 03:52:00
11:52 PM,59.0,37.0,44,30.01,10.0,South,17.3,26.5,N/A,,Clear,180,2013-04-26 04:52:00